カタログに戻る

WEILI KONGJIAN 05-05

運用中ナビゲーションLEO
NORAD 69586·PAYLOAD·🇨🇳 China
この衛星名は、まだ公式ソースで確認されていません。

打ち上げ Jun 17, 2026 から Jiuquan Satellite Launch Center

Loading…

次のパス (今後24時間)

TLE

最新Source: Space-Track

元期: Sep 14, 2026, 03:49 UTC

1 69586U 26138E   26257.15961683 -.00000167  00000-0 -66542-5 0  9999
2 69586  55.1405 312.4120 0012408  97.8132 262.4251 14.16001840 12622

AllMySatでWEILI KONGJIAN 05-05をリアルタイム追跡

Download on the App Store